Temp
-5 -6 -6 -6 -5 -6 -6 -6 -6 -7 -7 -7 -8 -8 -8 -8 -8 -8 -8 -7 -7 -8 -8 -8 -9 -9 -10 -10 -10 -10 -10 -10 -10 -11 -11 -11 -11 -11 -10 -9 -9 -9 -9
-5 -6 -6 -5 -5 -5 -6 -6 -6 -6 -7 -7 -8 -8 -8 -8 -8 -8 -7 -7 -7 -8 -8 -8 -9 -9 -9 -10 -10 -10 -10 -10 -10 -11 -11 -11 -12 -11 -10 -10 -10 -9 -9
-5 -5 -5 -5 -5 -5 -6 -6 -6 -6 -7 -7 -7 -8 -8 -8 -8 -7 -8 -7 -7 -8 -7 -8 -8 -9 -10 -10 -11 -11 -11 -11 -11 -11 -12 -12 -11 -12 -11 -11 -10 -9 -9
-5 -5 -5 -5 -5 -5 -6 -6 -5 -6 -6 -6 -7 -7 -7 -8 -7 -7 -7 -7 -7 -7 -8 -8 -8 -9 -10 -10 -11 -11 -11 -11 -12 -12 -12 -12 -12 -11 -12 -11 -11 -10 -9
-4 -5 -5 -4 -5 -5 -5 -5 -5 -6 -6 -7 -7 -7 -7 -6 -6 -7 -7 -7 -7 -7 -7 -8 -8 -8 -10 -10 -11 -11 -11 -12 -12 -12 -12 -13 -12 -12 -12 -12 -11 -10 -10
-4 -4 -4 -5 -5 -5 -5 -5 -5 -6 -7 -7 -7 -7 -6 -7 -7 -7 -7 -7 -7 -7 -8 -8 -8 -8 -10 -11 -11 -11 -11 -12 -12 -12 -12 -12 -12 -12 -13 -12 -11 -11 -11
-3 -3 -4 -4 -5 -5 -5 -5 -6 -6 -6 -7 -7 -6 -7 -7 -7 -7 -7 -7 -8 -7 -7 -8 -8 -9 -10 -10 -10 -11 -12 -12 -12 -12 -12 -12 -12 -12 -12 -12 -12 -11 -11
-3 -3 -4 -4 -4 -5 -5 -5 -5 -5 -6 -6 -6 -6 -7 -7 -7 -7 -7 -7 -7 -7 -7 -8 -8 -9 -10 -10 -10 -11 -12 -11 -12 -12 -12 -12 -12 -12 -12 -12 -11 -11 -10
-3 -4 -4 -4 -5 -5 -5 -5 -5 -6 -6 -7 -7 -7 -8 -8 -8 -8 -7 -7 -7 -7 -7 -8 -9 -10 -11 -10 -10 -11 -12 -12 -12 -12 -12 -12 -12 -12 -12 -12 -11 -11 -10
-4 -4 -4 -4 -5 -5 -5 -5 -6 -6 -7 -7 -7 -9 -7 -7 -7 -7 -7 -7 -7 -7 -7 -8 -9 -10 -10 -12 -11 -12 -12 -12 -12 -12 -12 -12 -12 -12 -12 -12 -11 -11 -10
-4 -4 -4 -4 -4 -5 -6 -6 -6 -6 -6 -7 -7 -6 -6 -6 -6 -6 -6 -7 -7 -7 -7 -8 -9 -10 -11 -11 -11 -11 -12 -13 -13 -12 -12 -12 -12 -11 -12 -11 -10 -10 -10
-4 -4 -4 -5 -5 -6 -6 -6 -6 -6 -6 -6 -7 -6 -6 -6 -6 -6 -6 -7 -7 -7 -7 -8 -9 -10 -11 -11 -11 -11 -11 -12 -12 -12 -12 -13 -11 -11 -12 -12 -11 -10 -10
-4 -5 -5 -5 -6 -6 -5 -5 -6 -6 -6 -6 -6 -6 -6 -6 -6 -6 -6 -6 -7 -7 -7 -8 -9 -10 -11 -11 -11 -12 -12 -12 -13 -13 -13 -13 -11 -11 -12 -12 -11 -10 -10
-5 -5 -5 -5 -6 -6 -6 -6 -6 -6 -6 -6 -6 -6 -6 -6 -6 -6 -6 -6 -6 -7 -8 -8 -9 -10 -10 -10 -11 -13 -13 -13 -13 -13 -13 -12 -12 -11 -11 -12 -11 -10 -9
-5 -5 -6 -6 -6 -7 -7 -7 -6 -7 -6 -6 -6 -6 -6 -6 -6 -6 -6 -6 -6 -7 -7 -8 -9 -10 -10 -10 -12 -13 -14 -13 -13 -14 -13 -12 -11 -11 -11 -11 -11 -9 -9
-5 -5 -6 -7 -7 -7 -7 -7 -7 -6 -6 -6 -6 -6 -6 -6 -6 -6 -6 -6 -6 -6 -7 -8 -9 -10 -10 -11 -13 -14 -14 -14 -14 -13 -13 -12 -11 -11 -11 -11 -11 -9 -9
-5 -5 -6 -6 -7 -7 -6 -6 -6 -6 -6 -5 -6 -6 -6 -6 -6 -6 -6 -6 -7 -6 -7 -9 -8 -10 -9 -11 -13 -14 -14 -14 -14 -13 -12 -12 -12 -11 -11 -11 -10 -9 -9
-5 -5 -6 -6 -6 -6 -6 -6 -6 -6 -6 -5 -5 -5 -6 -6 -7 -6 -6 -6 -7 -7 -7 -7 -9 -10 -10 -11 -13 -14 -13 -13 -13 -12 -12 -11 -11 -11 -11 -11 -10 -9 -8
-6 -6 -6 -6 -6 -6 -5 -5 -5 -5 -5 -5 -5 -5 -5 -6 -6 -7 -7 -7 -6 -7 -7 -8 -9 -10 -10 -11 -12 -13 -13 -13 -12 -12 -12 -11 -11 -11 -11 -10 -10 -9 -8
-6 -6 -6 -5 -5 -5 -4 -5 -4 -5 -5 -5 -5 -5 -5 -5 -6 -7 -7 -7 -7 -7 -8 -8 -9 -9 -10 -11 -11 -11 -12 -12 -11 -11 -11 -11 -11 -10 -10 -10 -9 -9 -9
-5 -5 -5 -5 -5 -5 -5 -5 -5 -5 -5 -5 -5 -5 -5 -6 -6 -7 -7 -7 -7 -7 -8 -8 -9 -8 -10 -10 -10 -11 -11 -12 -11 -11 -10 -10 -10 -10 -10 -10 -9 -8 -8
-6 -5 -5 -5 -5 -5 -5 -5 -5 -5 -5 -5 -5 -5 -5 -6 -6 -7 -7 -7 -7 -7 -8 -7 -8 -8 -9 -10 -10 -10 -11 -11 -10 -10 -10 -10 -10 -9 -10 -10 -9 -8 -7
-5 -5 -5 -5 -5 -5 -5 -5 -5 -5 -5 -5 -5 -5 -6 -5 -6 -7 -6 -6 -6 -6 -8 -7 -8 -8 -9 -9 -9 -9 -10 -10 -10 -10 -9 -9 -9 -9 -9 -8 -8 -7 -7
-5 -5 -5 -5 -5 -5 -5 -5 -5 -5 -5 -5 -5 -5 -5 -5 -6 -6 -7 -7 -6 -5 -7 -7 -7 -7 -9 -8 -8 -8 -9 -10 -10 -10 -9 -9 -8 -8 -8 -7 -7 -7 -7
-6 -6 -5 -5 -5 -5 -5 -5 -5 -5 -6 -6 -5 -5 -5 -5 -6 -6 -7 -7 -6 -6 -7 -7 -6 -6 -8 -8 -7 -8 -8 -8 -9 -8 -9 -8 -8 -7 -7 -6 -6 -7 -7
-6 -6 -5 -5 -5 -5 -5 -5 -5 -6 -6 -6 -6 -6 -6 -6 -6 -6 -6 -7 -7 -5 -7 -7 -6 -6 -7 -8 -6 -7 -7 -7 -8 -8 -8 -8 -7 -7 -6 -6 -7 -7 -7
Height
5929 5930 5929 5928 5928 5926 5925 5924 5922 5921 5919 5917 5915 5912 5908 5904 5902 5899 5896 5892 5889 5887 5884 5883 5883 5882 5880 5877 5879 5877 5876 5877 5873 5873 5874 5876 5876 5878 5881 5883 5885 5888 5891
5931 5931 5931 5930 5929 5928 5926 5924 5924 5921 5919 5916 5914 5910 5906 5903 5899 5895 5890 5888 5887 5884 5879 5879 5879 5877 5875 5874 5871 5870 5870 5868 5868 5864 5866 5870 5872 5873 5874 5876 5880 5883 5887
5932 5932 5931 5931 5929 5928 5926 5924 5922 5921 5919 5917 5914 5910 5908 5904 5899 5892 5886 5883 5881 5880 5877 5875 5874 5871 5870 5868 5867 5866 5864 5861 5860 5861 5859 5861 5865 5868 5869 5871 5874 5878 5884
5932 5931 5931 5931 5929 5928 5927 5924 5922 5920 5919 5916 5912 5908 5905 5900 5896 5890 5884 5880 5877 5874 5871 5868 5867 5865 5864 5862 5859 5859 5857 5854 5851 5851 5853 5854 5857 5860 5865 5866 5868 5873 5880
5932 5931 5930 5930 5928 5927 5925 5923 5921 5919 5916 5913 5909 5905 5902 5897 5892 5887 5883 5877 5872 5868 5866 5863 5861 5859 5857 5856 5855 5851 5849 5847 5848 5845 5844 5845 5848 5852 5858 5858 5863 5867 5871
5931 5931 5930 5929 5928 5926 5924 5923 5920 5917 5914 5910 5908 5903 5897 5893 5889 5883 5878 5873 5869 5865 5861 5858 5857 5856 5852 5849 5847 5842 5840 5838 5838 5836 5833 5833 5837 5843 5848 5850 5854 5858 5864
5931 5930 5929 5928 5926 5924 5922 5922 5919 5915 5912 5908 5904 5900 5895 5891 5885 5880 5874 5871 5866 5860 5856 5853 5852 5852 5843 5841 5838 5832 5830 5830 5827 5826 5823 5824 5828 5832 5838 5842 5847 5853 5857
5930 5929 5927 5926 5924 5923 5922 5920 5917 5913 5909 5906 5901 5897 5892 5887 5881 5875 5870 5864 5858 5855 5850 5846 5846 5839 5835 5833 5828 5824 5821 5820 5817 5816 5813 5816 5820 5824 5830 5834 5839 5845 5853
5929 5928 5926 5925 5923 5921 5919 5917 5915 5911 5907 5902 5897 5892 5886 5880 5873 5868 5863 5859 5852 5851 5845 5842 5837 5833 5827 5826 5823 5816 5811 5810 5807 5806 5805 5808 5814 5817 5821 5825 5832 5839 5847
5928 5926 5924 5923 5922 5919 5916 5915 5912 5908 5904 5899 5892 5882 5876 5873 5868 5862 5858 5854 5849 5845 5841 5837 5831 5825 5822 5819 5815 5809 5802 5800 5797 5795 5796 5800 5808 5812 5816 5819 5826 5833 5843
5926 5924 5923 5922 5921 5917 5915 5911 5908 5903 5898 5891 5885 5876 5873 5867 5861 5857 5853 5850 5844 5841 5835 5829 5824 5819 5814 5810 5806 5799 5792 5786 5784 5786 5788 5793 5799 5805 5811 5813 5820 5829 5838
5923 5922 5921 5920 5918 5915 5911 5908 5904 5898 5892 5888 5882 5876 5871 5866 5860 5855 5849 5845 5839 5837 5829 5825 5821 5813 5809 5803 5795 5787 5780 5776 5776 5778 5782 5787 5791 5799 5805 5809 5817 5824 5835
5921 5920 5918 5916 5914 5911 5907 5904 5899 5895 5890 5885 5879 5876 5871 5865 5857 5850 5848 5842 5837 5833 5827 5820 5815 5808 5802 5793 5784 5775 5771 5770 5770 5772 5777 5782 5788 5794 5801 5806 5814 5821 5833
5919 5917 5915 5912 5910 5909 5906 5901 5897 5892 5889 5884 5879 5875 5870 5864 5858 5849 5848 5842 5833 5827 5823 5816 5811 5802 5793 5783 5774 5766 5763 5764 5763 5765 5770 5777 5783 5791 5798 5804 5811 5820 5830
5916 5915 5913 5910 5908 5906 5903 5900 5897 5891 5886 5881 5878 5875 5871 5863 5858 5850 5846 5842 5835 5830 5824 5815 5808 5798 5786 5777 5767 5760 5758 5758 5761 5763 5768 5775 5779 5788 5796 5803 5809 5818 5829
5913 5911 5909 5908 5906 5904 5900 5897 5894 5890 5885 5881 5877 5873 5870 5865 5859 5852 5848 5842 5837 5833 5824 5815 5805 5794 5783 5772 5760 5755 5757 5759 5760 5763 5766 5773 5778 5786 5795 5802 5808 5818 5830
5910 5908 5907 5905 5904 5901 5898 5895 5892 5888 5885 5881 5876 5872 5868 5863 5858 5854 5849 5843 5837 5831 5824 5812 5803 5793 5783 5771 5759 5753 5756 5756 5758 5761 5766 5772 5778 5785 5795 5802 5808 5818 5830
5908 5907 5905 5903 5901 5898 5895 5893 5889 5885 5882 5879 5874 5869 5865 5861 5857 5852 5847 5842 5836 5830 5822 5811 5805 5794 5786 5773 5763 5757 5756 5757 5759 5762 5767 5774 5779 5786 5794 5802 5809 5819 5831
5906 5905 5902 5900 5898 5895 5892 5890 5887 5885 5880 5876 5872 5867 5864 5859 5854 5850 5846 5840 5835 5829 5821 5813 5807 5796 5788 5777 5769 5763 5760 5762 5764 5766 5771 5776 5782 5789 5796 5802 5810 5821 5832
5903 5902 5900 5898 5895 5893 5891 5888 5885 5881 5878 5874 5869 5865 5861 5857 5853 5848 5845 5840 5834 5829 5822 5815 5809 5800 5792 5782 5777 5769 5767 5765 5768 5772 5775 5780 5787 5792 5798 5804 5813 5824 5834
5899 5898 5898 5895 5893 5891 5889 5886 5883 5879 5876 5871 5868 5863 5859 5854 5850 5847 5843 5840 5835 5828 5823 5816 5812 5804 5797 5788 5783 5779 5774 5772 5773 5776 5779 5784 5789 5795 5800 5810 5819 5830 5839
5895 5895 5894 5892 5891 5888 5886 5883 5881 5877 5873 5869 5866 5861 5857 5852 5848 5845 5842 5838 5833 5828 5823 5818 5814 5808 5802 5794 5790 5787 5783 5779 5779 5782 5786 5790 5794 5800 5808 5817 5825 5834 5841
5891 5891 5890 5889 5887 5885 5883 5880 5878 5875 5871 5867 5864 5859 5855 5852 5848 5844 5840 5836 5832 5828 5824 5820 5817 5813 5808 5801 5798 5796 5793 5789 5789 5789 5792 5797 5802 5808 5816 5824 5832 5839 5844
5886 5886 5885 5884 5883 5882 5880 5877 5875 5872 5869 5865 5861 5857 5853 5849 5847 5843 5839 5836 5833 5828 5824 5821 5820 5816 5813 5809 5806 5805 5802 5799 5799 5799 5801 5805 5810 5817 5824 5830 5837 5842 5846
5880 5880 5879 5879 5878 5877 5875 5873 5871 5868 5864 5861 5857 5854 5850 5846 5843 5841 5838 5835 5832 5828 5823 5822 5820 5819 5818 5814 5813 5813 5811 5811 5809 5809 5812 5814 5818 5823 5829 5834 5838 5843 5848
5873 5872 5872 5872 5871 5870 5869 5867 5865 5862 5860 5856 5853 5850 5847 5843 5840 5837 5835 5832 5831 5828 5824 5822 5822 5820 5821 5819 5818 5817 5818 5818 5819 5818 5819 5822 5824 5827 5831 5835 5840 5844 5849
Wind_Speed
8 8 6 8 9 8 7 7 9 11 12 13 14 16 19 23 27 26 22 21 14 13 15 14 16 14 13 14 16 18 20 22 26 29 27 25 22 22 19 24 24 20 20
7 6 5 6 8 7 6 7 8 8 10 13 15 17 19 23 28 28 22 16 19 15 15 15 13 15 14 13 16 20 21 26 28 32 31 29 29 25 24 23 27 24 23
6 6 6 6 7 6 5 5 5 7 10 12 14 17 19 24 28 31 27 18 12 16 14 17 16 17 16 16 18 19 23 27 30 31 32 31 32 31 30 27 24 23 25
6 7 7 6 6 6 6 8 9 10 12 14 16 19 21 19 25 28 24 11 12 16 17 18 23 19 17 20 21 20 25 25 30 28 33 31 32 32 34 34 30 28 30
5 6 7 7 8 9 9 11 11 12 13 15 18 20 21 22 26 23 24 17 18 18 18 20 23 21 20 19 20 21 27 31 29 31 35 35 35 36 34 36 32 33 28
4 4 4 6 8 9 9 12 14 15 15 17 18 22 22 22 22 21 23 22 25 24 19 21 22 23 28 20 23 21 25 29 28 28 31 30 35 37 37 38 36 40 33
3 4 4 6 9 12 12 12 13 15 16 17 19 21 23 25 25 23 23 26 29 26 27 26 19 18 27 23 23 27 29 25 27 25 33 27 32 33 34 38 39 38 32
3 6 7 8 10 12 13 14 14 15 17 17 20 20 23 25 24 27 31 33 33 21 29 18 18 19 21 21 24 30 29 27 27 26 26 27 28 27 27 33 33 36 40
5 7 9 11 12 13 15 15 16 16 19 20 23 23 24 28 30 31 29 27 23 23 26 13 21 23 16 20 23 31 40 34 29 28 22 27 30 26 22 28 35 35 42
6 7 9 11 13 15 16 16 17 19 22 24 24 30 31 30 33 30 28 25 24 23 38 19 22 24 19 23 27 36 39 34 30 30 18 27 30 25 26 23 34 34 41
9 10 12 13 14 15 17 18 20 23 25 29 32 33 38 32 28 33 23 22 28 23 35 24 25 28 27 30 32 35 36 37 31 20 16 21 30 26 22 25 35 33 39
12 13 13 14 14 15 17 19 21 25 30 32 34 32 36 41 34 32 20 19 22 23 36 20 33 32 32 33 33 34 31 18 15 15 16 22 24 26 22 24 34 36 42
13 14 15 14 14 14 17 19 21 24 28 30 32 39 38 43 36 26 16 17 24 25 31 19 36 36 36 35 35 26 16 16 16 17 22 26 23 27 24 25 31 39 43
14 14 15 16 17 17 17 18 22 25 30 31 29 34 29 36 32 33 27 26 20 20 27 38 43 41 40 40 36 20 23 19 22 25 28 21 25 28 27 27 32 42 46
10 13 17 17 17 17 19 20 21 26 27 27 25 27 28 32 39 23 30 22 12 20 34 42 45 42 42 44 32 15 12 4 8 14 13 18 26 29 29 31 35 40 39
15 15 17 19 18 19 20 21 21 25 28 29 28 29 29 32 32 27 29 27 17 21 32 42 43 42 42 42 25 6 6 9 5 11 11 19 26 28 29 32 36 44 44
13 14 15 14 16 19 20 21 24 23 26 29 30 32 32 31 31 29 29 33 30 29 36 39 43 40 42 36 22 6 2 6 9 7 12 18 26 28 30 34 40 50 51
13 14 14 15 17 19 20 22 22 24 25 26 30 33 31 31 32 30 30 36 37 31 38 47 42 39 39 33 22 14 11 7 11 9 12 20 25 27 28 36 45 49 47
13 13 13 14 16 19 20 22 24 25 26 28 31 31 30 31 32 32 31 30 32 32 38 41 37 38 34 31 24 18 17 15 12 11 14 20 25 27 31 38 47 50 50
12 10 12 15 17 19 21 23 25 28 29 30 32 33 32 32 31 28 27 28 30 32 34 32 34 36 30 26 25 21 14 15 12 14 18 22 26 29 37 44 50 48 41
11 11 14 17 17 20 22 24 26 28 29 30 31 34 36 34 29 28 28 28 27 28 29 27 30 34 26 25 23 18 15 17 17 16 21 25 28 34 42 46 47 45 43
15 15 16 17 18 20 24 26 28 29 31 32 33 35 36 36 35 33 30 30 23 24 24 24 26 30 23 25 21 18 16 18 20 20 24 28 33 41 44 45 45 42 39
17 18 19 20 20 22 24 28 30 30 30 32 33 35 36 36 36 36 35 28 20 23 20 21 24 26 18 23 22 17 16 19 20 25 30 31 38 42 39 41 39 37 35
19 19 20 21 22 23 25 27 31 33 32 32 31 32 34 35 34 35 35 27 21 21 17 16 20 22 16 21 20 17 15 19 21 25 28 32 36 37 37 37 35 33 33
21 22 22 23 24 26 28 30 32 34 34 34 32 30 32 32 33 32 34 30 26 18 15 11 14 17 13 12 14 12 14 18 23 26 28 30 32 32 33 34 34 31 33
24 24 25 26 27 29 30 32 34 35 34 35 33 31 33 32 32 31 32 31 25 16 16 12 10 10 13 4 10 9 7 11 18 23 24 26 30 31 32 29 29 29 30
Wind_Direction
74 77 82 82 78 69 60 50 30 22 10 2 2 353 349 342 337 332 330 328 314 312 299 295 290 288 271 264 268 263 265 262 255 257 261 253 251 247 236 224 220 237 218
91 81 78 67 67 62 46 41 30 4 358 348 350 344 343 337 333 337 325 313 324 296 280 282 295 290 286 275 265 267 267 261 259 254 257 254 251 244 240 235 219 212 230
75 67 54 46 45 34 23 17 8 353 348 348 345 338 343 339 339 339 332 311 303 291 289 289 281 282 293 286 276 273 272 265 262 261 257 254 251 245 241 233 227 210 230
51 42 21 358 6 359 355 353 354 350 343 341 339 338 341 346 349 348 344 311 303 290 294 293 286 283 283 285 279 277 274 272 266 263 272 252 250 245 241 241 234 212 215
58 42 18 3 360 341 344 337 338 339 340 331 331 329 331 332 335 341 350 321 299 296 295 301 294 279 288 286 281 278 270 275 274 266 270 254 248 245 239 241 236 222 205
56 26 2 342 328 322 327 325 329 328 328 321 323 319 322 321 330 332 339 335 322 300 293 292 289 287 289 269 285 280 280 281 277 269 283 244 246 245 238 237 236 231 229
360 330 328 328 321 316 318 319 321 322 319 314 310 310 311 320 325 319 322 318 303 300 292 297 277 323 312 273 264 294 284 293 281 277 277 235 246 242 238 236 233 225 223
338 336 333 330 319 312 310 315 317 319 312 316 309 311 313 311 316 312 316 315 319 296 318 290 279 330 314 289 276 291 313 298 286 282 276 238 240 227 232 234 222 219 212
333 333 331 323 317 312 311 318 321 323 320 317 314 320 313 312 309 309 321 324 325 328 5 293 318 344 339 320 312 302 304 301 296 289 280 232 231 223 224 227 211 213 205
319 311 307 309 312 314 318 328 326 328 324 320 319 312 313 316 312 313 315 315 317 316 352 328 338 343 333 318 312 302 302 297 289 286 283 222 222 218 224 221 206 199 204
295 300 303 312 322 325 328 327 330 326 326 326 328 335 358 345 349 352 323 309 311 309 346 342 337 338 325 320 315 303 300 291 285 268 251 218 219 210 214 219 210 200 196
298 306 314 319 321 322 321 326 328 328 331 332 336 349 344 347 356 349 10 329 296 314 351 332 345 341 332 324 319 311 303 292 279 256 216 208 210 201 205 199 192 194 190
306 314 320 320 320 321 327 331 331 333 331 337 335 352 343 346 347 346 344 352 316 304 340 336 347 342 336 332 328 303 280 263 257 248 219 205 207 195 192 196 189 184 190
312 313 313 314 327 335 333 329 332 334 339 339 341 343 342 349 355 343 354 336 319 316 346 343 346 342 340 339 334 310 280 253 251 249 211 200 199 190 186 184 184 181 190
296 304 305 309 324 331 328 321 325 328 333 330 326 328 334 342 353 360 342 335 330 0 344 341 341 343 347 343 334 301 341 252 220 204 207 192 191 181 180 176 177 178 183
304 309 314 318 325 334 328 326 324 326 335 337 337 339 337 335 336 352 347 331 350 348 326 346 342 347 350 345 344 297 322 208 166 199 193 186 183 176 173 174 174 174 175
313 317 318 324 323 322 336 332 324 318 327 327 328 329 334 337 344 343 341 340 355 338 329 350 346 350 353 354 14 356 299 306 211 179 170 175 176 173 174 174 171 173 179
303 306 312 317 319 322 328 333 330 326 326 329 328 328 328 331 339 343 331 332 347 339 333 353 345 353 356 7 31 57 60 78 167 143 162 169 171 173 174 171 170 170 178
296 304 315 326 326 326 331 331 328 327 329 332 334 334 329 323 330 342 344 348 350 346 335 343 345 357 359 18 34 60 97 132 150 149 158 164 168 171 170 169 167 169 177
300 308 319 322 326 327 333 329 329 328 330 330 332 333 334 329 326 336 343 353 352 341 343 344 349 359 2 25 33 46 83 109 132 146 153 159 163 165 168 165 167 171 165
284 302 309 316 322 328 331 331 331 329 326 328 330 332 333 336 333 337 341 347 345 337 350 348 356 359 7 31 40 48 82 113 134 149 151 155 156 162 166 163 163 163 168
266 293 300 309 317 325 332 336 334 331 331 330 331 329 329 331 337 339 338 342 338 335 349 351 360 359 10 37 50 57 85 101 119 134 147 152 156 161 164 160 160 163 170
273 284 295 304 313 321 330 333 334 332 330 331 329 327 327 326 329 334 339 344 350 336 352 355 0 1 12 40 52 64 83 107 122 135 139 148 155 160 158 159 162 165 176
280 286 293 299 305 313 318 323 326 328 328 328 329 326 324 322 324 328 339 348 348 334 342 355 4 5 2 51 53 67 92 114 126 132 138 147 152 154 156 159 163 173 173
274 279 285 292 299 303 307 311 316 324 326 326 327 322 320 318 320 321 328 340 350 328 338 348 7 15 355 60 63 78 109 126 136 140 144 147 152 156 158 164 171 174 178
275 278 281 286 292 297 299 305 309 319 322 322 320 320 316 311 312 313 316 329 344 343 334 341 354 8 358 19 86 93 120 140 150 150 152 155 159 163 168 170 173 183 187